User: anonymous   Login
Location: Caltech
(34.1382°N, 118.1253°W)
Time: 23:41:03
(UTC-08:00)
Language:

NOSS 3-1 (C) - Orbit

View from above orbital plane
View from above orbital plane
View from above satellite
View from above satellite

Ground track
Ground track

The orbit data is extracted from the following two-line orbital elements,

1 26907U 01040C   16020.73382184 0.00000040  00000-0  52713-4 0    03
2 26907  63.4218 260.4047 0325000 357.9831   2.0169 13.41247878    02
Epoch (UTC): 20 January 2016 17:36:42
Eccentricity: 0.0325000
inclination: 63.4218°
perigee height: 861 km
apogee height: 1348 km
right ascension of ascending node: 260.4047°
argument of perigee: 357.9831°
revolutions per day: 13.41247878
mean anomaly at epoch: 2.0169°
orbit number at epoch: 0

The dashed part of the orbit path shows where the satellite is in the earth's shadow,  

DLR